Lapse_Rate
4.6 4.4 4.5 4.8 4.8 4.5 4.7 4.5 4.6 4.6 5.4 5.8 6.0 5.8 6.3 6.7 6.6 6.7 6.4 6.4 6.9 7.2 7.1 7.2 7.0 6.9 6.9 6.8 6.7 6.6 6.4 6.5 6.5 6.3 6.3 6.2 6.1 5.9 5.9 5.7 5.5 5.4 5.1 5.3
4.2 4.2 4.4 4.6 4.5 4.6 4.3 4.6 4.4 4.6 5.1 5.4 5.4 5.9 5.8 5.9 6.4 6.5 6.5 6.5 6.5 7.0 7.1 7.1 6.9 6.9 6.8 6.8 6.7 6.5 6.5 6.6 6.7 6.5 6.2 6.1 6.0 6.2 6.1 5.9 5.7 5.5 5.3 5.1
4.8 4.5 4.4 4.7 4.5 4.4 4.4 4.5 4.7 4.7 4.6 4.7 5.0 5.7 5.9 6.3 6.5 6.7 6.6 6.6 6.6 7.2 7.3 7.1 6.9 6.8 6.5 6.6 6.8 6.9 6.9 6.6 6.4 6.4 6.1 6.0 6.0 5.8 5.8 5.8 5.5 5.4 5.1 5.0
5.5 5.5 5.1 5.1 4.6 4.5 4.5 4.5 4.5 4.3 4.5 4.7 4.6 4.7 6.5 6.5 6.5 6.8 6.9 6.9 7.3 7.3 7.1 7.0 6.7 6.5 6.9 7.2 7.1 7.0 7.0 6.8 6.5 6.2 6.2 5.9 5.8 5.6 5.5 5.3 5.4 5.5 5.2 4.9
4.9 5.4 5.2 5.5 5.5 4.9 4.4 4.3 4.5 4.4 4.4 4.5 4.9 5.2 5.7 6.4 6.4 6.4 6.4 6.9 6.8 6.9 7.1 7.2 7.4 7.4 7.1 6.9 6.8 6.9 6.8 6.7 6.6 6.5 6.3 6.2 6.0 5.9 5.5 5.4 5.6 5.3 5.1 4.9
5.0 5.0 5.5 5.3 5.2 4.8 4.9 4.4 4.3 4.2 4.4 3.9 5.1 5.1 5.2 6.3 6.6 6.6 6.7 6.8 6.8 7.0 7.1 7.2 7.2 7.3 7.1 6.9 6.9 6.7 6.7 6.9 6.7 6.4 6.5 6.3 5.9 5.9 5.5 5.5 5.4 5.4 5.3 5.1
4.8 4.7 5.3 5.8 5.7 5.2 5.3 4.9 4.6 4.5 4.0 3.5 5.3 5.2 5.1 6.0 6.6 6.7 6.6 6.9 7.2 6.8 6.9 6.7 6.7 6.9 6.9 6.8 6.7 6.6 6.5 6.5 6.3 6.3 6.2 6.0 6.1 6.1 5.9 5.7 5.4 5.1 5.0 5.0
5.0 5.0 5.5 5.5 5.6 5.6 5.7 5.6 5.9 5.3 4.5 4.8 5.6 5.3 5.1 6.0 6.4 6.6 7.2 7.0 7.0 6.8 6.9 6.9 6.6 6.5 6.5 6.6 6.7 6.7 6.6 6.5 6.3 6.4 6.4 6.3 6.3 6.2 6.0 6.0 5.8 5.5 5.2 5.0
5.1 5.4 5.6 6.1 5.7 5.8 5.6 5.7 6.0 6.2 5.8 5.5 5.7 5.5 5.6 6.0 6.3 6.5 6.8 7.1 6.9 7.0 6.9 6.7 6.6 6.7 6.8 6.7 6.7 6.8 6.8 6.8 6.6 6.3 6.1 6.2 6.2 6.3 6.2 6.1 6.0 6.0 5.8 5.5
6.1 5.3 5.5 5.8 6.1 5.7 5.9 6.0 6.0 6.2 4.4 4.8 6.0 6.3 6.6 6.8 6.7 6.6 6.5 6.8 6.9 6.7 6.3 6.3 6.3 6.3 6.2 6.2 6.3 6.5 6.6 6.7 6.7 6.8 6.9 6.9 6.8 6.7 6.6 6.4 6.2 5.9 5.8 5.7
6.2 6.2 5.3 5.3 5.6 5.9 5.5 5.4 6.0 6.3 6.3 4.4 4.6 6.2 6.1 6.2 6.3 6.5 6.7 6.8 6.7 6.1 5.9 5.8 6.0 6.1 6.3 6.6 7.1 7.3 7.4 7.3 7.3 7.3 7.2 6.9 6.7 6.7 6.6 6.5 6.2 5.9 5.8 5.7
6.0 5.5 5.4 5.7 5.9 5.7 6.0 6.0 6.4 6.2 5.8 6.2 5.4 5.5 6.0 6.4 6.6 6.4 6.3 6.3 6.2 6.4 6.5 6.7 6.8 6.8 7.1 7.3 7.4 7.1 7.2 7.1 7.0 6.6 6.6 6.4 6.3 6.3 6.4 6.4 6.3 6.2 6.2 6.1
6.1 6.0 5.7 5.9 6.1 5.7 5.4 5.8 6.3 6.6 5.9 5.8 5.3 5.9 6.6 6.7 6.8 6.4 6.0 5.8 6.3 6.2 6.5 6.7 6.8 6.9 7.0 7.0 7.0 7.2 6.9 6.7 6.6 6.2 6.0 5.9 6.1 6.1 6.2 6.3 6.4 6.6 6.6 6.5
6.3 6.2 6.3 6.3 6.2 6.2 5.9 6.6 6.7 6.7 6.1 6.0 6.4 6.9 7.0 7.0 6.1 6.2 6.5 6.3 6.2 6.5 6.4 6.6 6.9 7.1 7.1 7.1 6.9 6.9 7.3 7.1 6.9 6.8 6.6 6.4 6.4 6.5 6.5 6.4 6.4 6.4 6.6 6.6
6.2 6.3 6.5 6.7 6.8 6.6 6.4 6.6 6.4 6.3 6.5 6.0 6.6 6.6 6.9 6.7 6.7 6.2 5.6 6.1 6.6 6.3 6.7 7.0 7.1 7.2 7.3 7.4 7.4 7.2 7.1 7.2 7.4 7.2 7.2 7.2 7.0 6.9 6.8 6.8 6.7 6.7 6.8 7.0
6.2 6.0 6.3 6.4 6.7 6.7 6.8 6.7 6.6 6.2 6.2 6.3 6.3 6.4 7.0 6.8 6.0 6.1 6.3 6.2 6.2 6.4 6.5 6.6 6.8 6.7 6.6 6.8 7.1 7.3 7.4 7.4 7.3 7.4 7.5 7.5 7.6 7.4 7.1 7.1 7.0 6.7 6.7 7.0
6.4 6.3 6.2 6.2 6.3 6.4 6.4 6.9 7.1 7.1 6.8 6.6 6.1 7.0 6.4 6.3 6.7 6.9 6.8 6.7 6.7 6.6 6.7 6.8 6.6 6.6 6.6 6.7 6.7 6.8 6.9 7.1 7.2 7.3 7.5 7.4 7.7 7.6 7.6 7.2 7.0 7.2 7.1 7.4
6.4 5.8 6.2 5.6 6.0 4.8 6.7 7.1 7.3 7.2 7.0 6.9 7.0 6.5 6.7 7.0 7.1 7.1 7.3 7.2 6.9 6.8 6.7 6.5 6.3 6.2 6.4 6.6 6.8 6.9 6.9 7.0 7.1 7.2 7.3 7.1 7.0 7.2 7.4 7.4 7.3 7.3 7.4 7.4
5.9 5.9 5.7 5.7 5.6 6.1 6.5 6.6 6.7 6.7 6.7 6.8 6.8 7.3 7.6 7.5 7.2 6.6 6.6 6.7 6.7 6.6 6.5 6.6 6.6 6.7 6.7 6.8 6.7 6.6 6.4 6.6 6.7 7.0 7.4 7.5 7.4 7.4 7.3 7.3 7.0 7.0 7.3 7.3
6.1 6.1 6.1 5.8 5.6 4.0 6.5 7.0 7.2 7.3 7.1 7.6 7.5 7.6 7.5 7.4 6.8 6.9 6.9 6.7 6.6 6.7 6.8 6.7 6.6 6.6 6.5 6.4 6.4 6.5 6.6 6.7 6.8 6.9 7.0 7.0 7.0 7.1 7.1 7.1 7.3 7.1 7.2 7.3
5.8 5.7 5.8 6.0 6.0 6.4 6.7 6.8 6.9 6.9 7.2 7.3 7.3 7.3 7.4 7.3 7.0 6.8 6.7 6.6 6.4 6.4 6.4 6.3 6.3 6.0 6.1 6.2 6.1 6.2 6.3 6.3 6.5 6.6 6.7 6.6 6.8 6.9 6.8 7.0 7.1 7.1 7.3 7.2
6.2 5.8 5.5 5.4 5.3 5.8 6.9 6.8 6.6 6.8 6.7 6.5 6.6 7.0 7.1 6.9 6.8 6.5 6.3 6.1 6.1 6.3 6.1 6.2 6.2 6.2 6.0 6.0 6.0 5.9 5.9 5.9 6.0 6.2 6.5 6.6 6.7 6.8 6.8 6.8 6.9 7.4 7.1 6.7
6.5 6.6 6.6 6.6 7.0 7.0 7.0 6.7 6.7 6.6 7.0 7.1 7.0 6.9 6.9 6.7 6.4 6.5 6.5 6.2 6.0 6.1 5.9 5.8 5.7 5.6 5.5 5.4 5.5 5.6 5.6 5.7 5.9 6.1 6.3 6.5 6.6 6.7 6.8 6.8 6.8 7.2 7.4 7.0
6.7 6.7 6.3 6.5 7.3 7.1 6.9 6.5 6.5 6.6 6.9 6.8 6.8 6.6 6.4 6.5 6.4 6.2 6.0 5.9 5.9 5.5 5.4 5.4 5.4 5.2 5.3 5.4 5.5 5.5 5.4 5.4 5.6 5.9 6.2 6.3 6.6 6.9 6.9 7.0 7.2 7.1 7.1 7.0
6.2 6.1 6.4 6.8 6.8 6.8 6.6 6.4 6.4 6.5 6.4 6.5 6.6 6.5 6.1 5.9 5.8 5.8 5.5 5.3 5.3 5.4 5.3 5.1 5.0 5.0 5.0 4.9 5.0 5.1 5.0 5.2 5.5 5.7 6.0 6.3 6.5 6.8 7.0 7.1 7.0 7.2 7.2 6.8
6.5 6.7 6.5 6.6 6.7 6.5 6.6 6.4 6.3 6.2 6.1 6.0 5.9 5.8 5.7 5.6 5.5 5.6 5.7 5.6 5.4 5.2 5.1 5.1 5.1 5.0 4.9 4.9 4.8 4.8 5.1 5.4 5.6 5.8 6.2 6.2 6.3 6.6 6.8 6.8 6.9 7.1 7.1 7.1
Wind_Speed
3 3 5 9 7 7 5 2 2 2 9 6 5 5 2 6 4 5 6 7 8 9 8 9 9 8 8 7 7 7 7 8 4 3 2 3 4 3 3 9 10 8 4 6
3 5 7 12 10 7 7 6 4 6 6 6 10 9 9 5 6 7 6 5 5 4 6 6 5 7 7 8 8 6 6 6 5 3 3 3 3 4 4 8 9 6 5 6
6 2 12 8 12 13 9 9 5 1 6 7 8 8 5 8 6 6 7 6 5 7 7 7 8 9 8 7 6 7 8 6 5 7 3 3 1 2 2 1 2 4 6 6
6 3 12 12 15 15 11 13 8 6 6 2 5 4 7 6 12 8 8 5 8 8 7 6 5 4 2 3 1 2 2 4 5 5 4 5 4 4 3 4 4 4 6 6
5 6 7 13 17 16 3 10 12 6 4 6 5 1 5 8 5 6 9 8 6 5 6 7 7 7 6 6 4 5 4 4 4 4 4 4 4 3 3 3 7 5 3 4
2 2 5 3 5 10 9 10 12 7 3 3 8 6 4 5 4 5 3 6 6 6 7 7 6 4 5 5 6 6 7 6 5 4 4 5 6 6 3 3 4 3 3 3
3 3 2 3 8 10 13 10 3 2 1 4 1 6 9 9 6 2 5 6 6 7 5 4 5 5 6 6 5 4 4 6 5 3 2 4 6 6 5 4 4 4 4 3
7 3 8 4 1 7 7 9 3 4 4 4 4 5 4 3 4 5 7 5 3 3 5 5 6 4 4 4 3 4 4 4 6 3 3 4 5 3 4 5 5 5 5 5
10 4 3 8 2 6 4 4 3 5 1 3 4 5 6 7 4 2 5 6 1 7 5 5 6 5 4 4 4 3 5 4 6 2 3 6 5 5 6 7 6 5 6 5
6 5 6 5 1 3 3 6 4 2 3 3 3 3 4 1 1 4 8 9 8 6 7 6 5 4 4 3 3 2 2 4 5 5 5 5 6 7 6 5 6 6 5 6
3 5 4 5 6 9 3 4 2 5 3 4 1 1 3 6 8 9 8 7 7 7 6 6 4 3 2 3 3 3 5 6 6 6 6 6 6 6 6 6 6 5 5 6
1 4 6 4 3 4 6 5 4 3 4 3 3 3 4 7 8 8 6 6 5 5 4 1 4 5 5 4 4 5 6 7 7 7 7 7 7 7 7 7 7 6 6 6
2 1 6 3 3 2 2 5 6 2 2 3 4 2 3 4 7 7 7 5 2 1 4 6 7 6 7 8 6 6 6 7 7 6 6 7 7 7 8 7 7 7 7 7
4 2 3 3 4 2 5 8 7 5 3 2 5 4 4 4 7 8 7 7 8 7 7 10 13 14 14 13 11 8 8 7 7 6 7 7 9 8 8 7 7 8 8 8
2 3 4 6 6 3 4 3 7 9 6 5 2 4 3 5 6 5 8 9 8 11 12 9 9 8 9 11 11 9 8 8 7 7 7 9 8 7 7 8 8 7 7 8
4 2 3 3 4 5 3 6 5 3 8 9 7 13 5 6 9 11 8 8 8 8 7 7 7 7 7 8 11 12 10 9 7 7 8 9 7 8 8 8 8 7 7 7
3 2 2 1 5 2 4 10 10 4 3 5 7 9 3 7 9 7 7 6 7 7 7 7 8 8 8 9 12 12 13 14 12 9 8 8 8 8 8 8 8 9 10 7
3 3 2 2 2 0 4 5 1 13 8 11 5 7 8 6 5 5 7 7 5 5 6 6 6 8 8 8 8 9 10 12 12 13 12 9 8 10 7 8 10 10 6 10
4 3 2 3 3 5 2 3 1 4 2 7 6 7 7 7 5 4 7 4 4 5 6 5 6 6 8 9 8 10 12 10 10 11 13 13 9 10 8 9 10 9 6 7
3 5 3 2 3 5 1 1 5 3 1 6 7 6 4 4 2 1 10 9 8 7 7 7 7 6 8 8 8 8 10 9 10 11 13 13 12 14 15 11 9 7 8 11
2 2 4 2 2 7 4 2 4 6 3 4 2 2 4 2 1 5 8 7 5 5 8 8 7 7 9 9 9 11 10 10 9 11 12 13 11 11 11 13 6 5 7 6
6 5 3 1 2 7 6 4 4 4 4 4 2 3 4 4 6 6 8 6 8 8 8 7 6 9 11 8 8 12 12 11 12 13 14 13 12 9 8 9 10 6 6 6
3 6 4 7 6 4 6 2 5 4 3 1 3 3 4 5 6 7 5 7 6 7 6 5 6 11 12 7 6 13 14 14 14 14 14 14 13 10 8 8 9 5 6 7
4 4 2 2 6 9 6 3 2 2 2 3 2 3 4 5 6 7 7 7 8 8 7 6 8 11 13 9 10 11 13 13 14 15 14 13 12 12 8 6 6 6 7 7
4 5 6 5 7 7 7 4 4 5 4 4 4 3 3 5 7 5 7 8 7 7 5 6 9 11 12 11 12 12 12 12 14 14 13 13 10 10 10 8 7 7 8 9
6 7 5 4 3 4 3 5 4 3 3 3 3 5 5 5 5 5 6 5 5 8 9 9 10 11 13 13 13 13 11 10 11 13 11 10 11 10 8 8 9 15 21 20
Wind_Direction
160 197 199 168 150 132 129 127 324 37 14 340 334 310 157 165 179 270 271 185 186 186 195 187 192 196 194 191 199 197 189 194 172 182 181 206 211 201 209 219 217 211 225 248
123 237 195 176 168 136 168 177 222 309 16 3 3 328 310 222 187 195 235 248 233 222 198 218 203 191 193 198 206 203 216 198 187 179 200 185 191 212 199 201 185 180 226 240
152 158 221 242 164 170 219 176 153 303 351 353 334 291 274 265 253 183 229 259 289 246 227 221 205 204 195 208 206 200 217 223 212 199 192 208 73 34 111 160 154 175 208 232
222 324 207 200 184 183 184 213 148 155 154 202 152 270 267 238 220 196 204 227 245 260 276 265 328 40 161 235 120 201 217 227 233 213 203 202 189 203 212 179 182 163 186 222
148 158 211 189 193 179 170 124 165 181 46 7 198 318 255 263 279 186 200 217 258 2 52 35 18 6 10 35 47 5 305 255 259 239 207 218 239 236 241 116 133 144 165 204
65 313 353 36 30 124 116 82 65 64 87 223 215 202 253 217 231 225 135 100 74 46 23 10 22 40 333 348 9 357 342 319 294 256 234 234 258 254 239 136 151 163 175 203
172 104 44 252 91 131 129 135 108 126 169 226 338 216 244 298 330 350 91 89 57 37 29 20 346 352 358 7 9 343 324 304 295 245 237 268 259 287 267 187 175 176 189 196
176 181 176 213 203 180 173 162 152 178 184 182 346 237 261 278 30 61 74 63 32 341 57 40 38 24 7 359 357 328 303 281 300 187 219 256 255 238 255 202 187 197 195 194
180 174 142 148 21 145 177 209 93 91 22 69 204 259 277 234 254 143 86 77 45 99 57 46 40 43 24 1 345 324 313 295 300 274 266 259 246 241 236 227 199 191 188 177
139 120 162 121 155 178 176 132 68 358 135 228 244 233 237 306 155 127 82 66 55 59 52 51 46 29 14 346 322 304 282 278 251 234 234 240 241 244 248 244 220 204 181 167
22 121 158 129 222 170 181 166 192 138 143 172 137 244 339 72 80 88 75 56 40 28 42 49 33 347 268 253 266 265 246 235 242 235 236 237 246 235 236 232 222 212 190 182
356 108 145 159 2 18 218 163 175 133 224 241 125 273 64 83 85 93 65 52 51 40 358 327 284 288 288 284 264 258 253 246 239 226 227 234 237 234 232 227 221 203 200 190
263 60 120 116 315 58 177 220 207 234 92 204 125 244 230 176 127 149 143 142 137 189 325 339 334 344 352 325 281 261 254 256 258 248 241 240 242 233 227 226 220 204 193 194
9 62 65 128 99 116 165 199 216 214 134 192 199 149 193 146 41 5 6 10 10 11 5 9 16 7 360 352 344 312 289 263 251 240 246 257 254 242 236 231 222 204 195 193
67 98 83 79 85 19 76 184 215 216 226 192 128 263 285 359 349 340 25 21 13 33 30 16 6 354 345 343 338 336 332 301 265 244 238 245 253 246 244 234 228 222 209 212
339 108 99 81 119 140 171 238 268 255 240 265 284 279 285 315 51 36 13 5 43 34 8 354 344 333 332 333 329 329 322 318 293 256 245 245 246 242 235 235 228 218 212 215
32 94 45 161 356 44 336 210 198 190 224 205 240 246 30 44 35 10 330 50 37 12 341 330 331 333 340 333 328 323 327 325 321 304 277 262 253 249 239 232 221 219 216 195
53 46 25 138 25 53 251 355 242 197 209 225 237 59 69 57 354 315 68 57 11 323 314 326 329 337 333 321 314 328 326 319 318 313 302 289 275 265 247 227 236 237 219 214
4 59 60 128 201 284 323 52 59 164 128 25 72 53 38 21 318 178 73 43 323 316 321 331 342 325 323 319 324 330 327 321 319 319 320 315 300 286 267 252 233 226 217 223
322 48 103 40 122 211 195 89 344 352 251 73 57 31 352 2 72 286 4 351 324 331 328 324 330 335 320 313 326 324 316 313 318 325 321 314 309 299 289 265 247 240 221 226
71 23 155 204 226 290 244 176 344 93 215 107 68 359 353 343 275 316 332 319 337 329 323 338 343 317 304 326 320 322 312 315 313 315 311 307 303 297 294 287 262 229 225 230
164 150 192 191 108 275 161 108 185 182 140 121 328 5 330 327 332 303 298 324 330 321 326 332 329 322 321 322 329 321 318 317 318 316 312 304 298 294 291 283 279 254 205 224
226 190 185 182 211 233 194 104 103 103 134 117 81 17 329 312 292 299 313 323 317 324 319 331 337 318 315 319 322 319 317 322 319 314 310 306 299 294 285 274 273 229 241 199
242 246 215 105 258 245 246 263 155 180 98 93 32 300 315 305 314 317 331 328 330 331 337 330 323 313 309 324 322 315 318 318 316 310 309 304 298 297 277 262 263 247 235 237
206 140 189 262 283 295 280 228 111 91 53 40 30 20 330 335 325 332 323 320 315 307 307 317 307 310 311 321 318 319 320 322 317 312 309 305 296 290 290 265 258 253 247 236
183 190 180 217 185 146 132 119 79 91 112 85 3 335 15 9 323 312 290 285 290 310 318 317 315 315 319 320 313 315 314 318 314 313 312 307 303 298 288 283 284 260 262 260